Location: Demmingen
(48.6757°N, 10.4375°E)
Time: 20:50:07
(UTC+00:00)

SL-16 R/B - Pass Details

Date: 13 August 2024
Orbit: 842 x 845 km, 71.0° (Epoch: 10 September)

Event Time Altitude Azimuth Distance (km) Brightness Sun altitude
Exits shadow 22:17:36 41° 93° (E) 1,206 2.8 -25.4°
Drops below altitude 10° 22:22:21 10° 39° (NE) 2,474 5.0 -25.6°
Sets 22:24:55 0° 33° (NNE) 3,414 5.9 -25.7°
